Regional Weather Roundup
Issued by NWS

Home | Current Version | Previous Version | Graphics & Text | Print | Product List | Glossary On
Versions: 1 2 3 4 5 6 7 8 9 10 11 12 13 14 15 16 17 18 19 20 21 22 23 24 25 26 27 28 29 30 31 32 33 34 35 36 37 38 39 40 41 42 43 44 45 46 47 48 49 50
000
ASUS43 KLMK 031710
RWRKY
KENTUCKY REGIONAL WEATHER ROUNDUP
NATIONAL WEATHER SERVICE LOUISVILLE KY
1200 PM EST TUE MAR 03 2015

NOTE "FAIR" INDICATES FEW OR NO CLOUDS BELOW 12,000 FEET
WITH NO SIGNIFICANT WEATHER AND/OR OBSTRUCTIONS TO VISIBILITY.

KYZ001>023-026-027-061>063-070>075-031800-
WESTERN AND SOUTH CENTRAL KENTUCKY

CITY           SKY/WX    TMP DP  RH WIND       PRES   REMARKS
PADUCAH        FOG       46  45  96 SW13G21   29.95F VSB 3/4
HENDERSON      CLOUDY    45  41  87 S14       29.93S
OWENSBORO      CLOUDY    44  43  97 S12       29.94F FOG
HOPKINSVILLE   CLOUDY    56  53  88 S16G28    29.99F
BOWLING GREEN  CLOUDY    56  50  80 S16       30.01F
GLASGOW        CLOUDY    54  49  82 SW9G16    30.01F
$$

KYZ024-025-028>034-038-045-046-053-031800-
NORTH CENTRAL KENTUCKY

CITY           SKY/WX    TMP DP  RH WIND       PRES   REMARKS
LOUISVILLE/SDF LGT RAIN  44  41  89 SE6       29.94F FOG
LOUISVILLE/LOU CLOUDY    42  39  89 S6        29.95F
FORT KNOX      CLOUDY    48  46  93 S12G22    29.93F
$$

KYZ035>037-039>044-047>052-055>060-089>105-031800-
NORTHEAST KENTUCKY

CITY           SKY/WX    TMP DP  RH WIND       PRES   REMARKS
LEXINGTON      LGT RAIN  42  41  96 S14       29.96F FOG
COVINGTON      LGT RAIN  36  33  89 S13       29.90F FOG     WCI  27
FRANKFORT      LGT RAIN  42  40  92 S9        29.95F
$$

KYZ054-064>069-076>088-106>120-031800-
SOUTHEAST KENTUCKY

CITY           SKY/WX    TMP DP  RH WIND       PRES   REMARKS
JACKSON        CLOUDY    46  37  71 VRB3      30.02F
LONDON         CLOUDY    55  46  71 SW8       30.05F
SOMERSET       CLOUDY    54  46  76 S9        30.05F
MIDDLESBORO    CLOUDY    42  37  82 SE8       30.14F
MONTICELLO     CLOUDY    59  53  80 S13       30.06F
$$



USA.gov is the U.S. government's official web portal to all federal, state and local government web resources and services.